Home > Weather > Makkah > Past weeks

Flag for Saudi Arabia Past Weather in Makkah, Saudi Arabia — Yesterday and Last 2 Weeks

Now
88 °F

Clear.


Feels Like: 89 °F
Forecast: 75 / 107 °F
Wind: No wind

Location: Mecca Airport

Current Time: May 30, 2016 at 6:14:45 AM

Latest Report: May 30, 2016 at 5:00 AM


Visibility: 10 mi

Pressure: 29.74 "Hg

Humidity: 46%

Dew Point: 64 °F

Location of MakkahLocation

Past Weather in Makkah — Graph

°F

Makkah Temperature Yesterday

Maximum temperature yesterday: 109 °F (at 3:00 PM)
Minimum temperature yesterday: 86 °F (at 5:00 AM)
Average temperature yesterday: 96 °F

High & Low Weather Summary for the Past Weeks

 TemperatureHumidityPressure
High117 °F (May 17, 2:00 PM)74% (May 21, 6:00 AM)29.83 "Hg (May 21, 6:00 AM)
Low79 °F (May 21, 6:00 AM)19% (May 27, 2:00 PM)29.59 "Hg (May 17, 4:00 PM)
Average97 °F43%29.73 "Hg
* Reported May 15 5:00 AM — May 30 5:00 AM, Makkah, Weather by CustomWeather, © 2016

Note: Actual official high and low records may vary slightly from our data, if they occured in-between our weather recording intervals... More about our weather records

Advertising

Makkah Weather History for the Previous 24 Hours

Scroll right to see more
 ConditionsComfort  
Time TempWeatherWind HumidityBarometerVisibility
5:00 AM
Mon, May 30
88 °FClear.No wind46%29.74 "Hg10 mi
4:00 AM88 °FClear.No wind52%29.74 "Hg10 mi
3:00 AM88 °FClear.No wind55%29.74 "Hg10 mi
2:00 AM88 °FClear.No wind55%29.74 "Hg10 mi
1:00 AM90 °FClear.No wind46%29.74 "Hg10 mi
12:00 AM90 °FClear.2 mph46%29.77 "Hg10 mi
11:00 PM
Sun, May 29
90 °FClear.2 mph46%29.80 "Hg10 mi
10:00 PM91 °FClear.2 mph44%29.80 "Hg10 mi
9:00 PM91 °FClear.2 mph41%29.80 "Hg10 mi
8:00 PM93 °FClear.2 mph44%29.77 "Hg10 mi
7:00 PM97 °FClear.2 mph42%29.74 "Hg10 mi
5:00 PM104 °FSunny.2 mph31%29.71 "Hg10 mi
4:00 PM108 °FSunny.5 mph30%29.71 "Hg10 mi
3:00 PM109 °FSunny.7 mph25%29.71 "Hg10 mi
2:00 PM108 °FSunny.2 mph30%29.74 "Hg10 mi
1:00 PM108 °FSunny.2 mph28%29.74 "Hg10 mi
12:00 PM106 °FSunny.5 mph30%29.77 "Hg10 mi
11:00 AM102 °FSunny.2 mph33%29.77 "Hg10 mi
10:00 AM97 °FSunny.No wind39%29.77 "Hg10 mi
9:00 AM93 °FSunny.No wind47%29.77 "Hg10 mi
8:00 AM88 °FSunny.No wind55%29.77 "Hg10 mi
7:00 AM86 °FSunny.No wind59%29.77 "Hg10 mi
6:00 AM86 °FSunny.No wind59%29.74 "Hg10 mi
Weather by CustomWeather, © 2016

See weather overviewHow to use our weather pages